,,Stat6,,Stat2,,Stat8,,Stat9,,Stat10,,Wind1,,Wind1,
time,status,PA1M_AVG,status,PR1M_SUM,status,RH1M_AVG,status,SR1M_AVG,status,TA1M_AVG,status,W1dAve1m,status,W1sAve1m,
2004-12-05, 00:00:00,VALID,918.672,VALID,0,VALID,100,VALID,0,VALID,19.705,VALID,340,VALID,0,
2004-12-05, 00:01:00,VALID,918.662,VALID,0,VALID,100,VALID,-0.0339617,VALID,19.7052,VALID,340,VALID,0,
2004-12-05, 00:02:00,VALID,918.645,VALID,0,VALID,100,VALID,-0.0169808,VALID,19.7117,VALID,353,VALID,0.378634,
2004-12-05, 00:03:00,VALID,918.627,VALID,0,VALID,100,VALID,-0.0169808,VALID,19.7054,VALID,23,VALID,0.650298,
2004-12-05, 00:04:00,VALID,918.603,VALID,0,VALID,100,VALID,0,VALID,19.6886,VALID,33,VALID,0.846839,
2004-12-05, 00:05:00,VALID,918.582,VALID,0,VALID,100,VALID,0,VALID,19.6856,VALID,23,VALID,1.00981,
2004-12-05, 00:06:00,VALID,918.58,VALID,0,VALID,100,VALID,-0.0169808,VALID,19.6826,VALID,9,VALID,0.974805,
2004-12-05, 00:07:00,VALID,918.567,VALID,0,VALID,100,VALID,0,VALID,19.6602,VALID,15,VALID,0.686756,
2004-12-05, 00:08:00,VALID,918.553,VALID,0,VALID,100,VALID,0,VALID,19.6697,VALID,1,VALID,1.0359,
2004-12-05, 00:09:00,VALID,918.555,VALID,0,VALID,100,VALID,0,VALID,19.6697,VALID,354,VALID,0.535792,
2004-12-05, 00:10:00,VALID,918.573,VALID,0,VALID,100,VALID,-0.0169808,VALID,19.6828,VALID,326,VALID,0.517578,
2004-12-05, 00:11:00,VALID,918.575,VALID,0,VALID,100,VALID,0,VALID,19.6893,VALID,307,VALID,0.417878,
2004-12-05, 00:12:00,VALID,918.585,VALID,0,VALID,100,VALID,0.0169808,VALID,19.6987,VALID,286,VALID,0.0581395,
2004-12-05, 00:13:00,VALID,918.588,VALID,0,VALID,100,VALID,0,VALID,19.7084,VALID,286,VALID,0.229167,
2004-12-05, 00:14:00,VALID,918.573,VALID,0,VALID,100,VALID,0,VALID,19.7082,VALID,286,VALID,0.00746528,
2004-12-05, 00:15:00,VALID,918.584,VALID,0,VALID,100,VALID,0,VALID,19.7149,VALID,286,VALID,0.141369,
2004-12-05, 00:16:00,VALID,918.592,VALID,0,VALID,100,VALID,-0.0169808,VALID,19.7151,VALID,286,VALID,0.208212,
2004-12-05, 00:17:00,VALID,918.595,VALID,0,VALID,100,VALID,0,VALID,19.7181,VALID,286,VALID,0.248811,
2004-12-05, 00:18:00,VALID,918.595,VALID,0,VALID,100,VALID,-0.0509425,VALID,19.7345,VALID,299,VALID,0.136052,
2004-12-05, 00:19:00,VALID,918.594,VALID,0,VALID,100,VALID,0,VALID,19.7407,VALID,357,VALID,0.0989583,
2004-12-05, 00:20:00,VALID,918.598,VALID,0,VALID,100,VALID,0,VALID,19.741,VALID,357,VALID,0.00669643,
2004-12-05, 00:21:00,VALID,918.588,VALID,0,VALID,100,VALID,0,VALID,19.7276,VALID,357,VALID,0,
2004-12-05, 00:22:00,VALID,918.586,VALID,0,VALID,100,VALID,0,VALID,19.7047,VALID,357,VALID,0,
2004-12-05, 00:23:00,VALID,918.584,VALID,0,VALID,100,VALID,-0.0169808,VALID,19.6928,VALID,357,VALID,0,
2004-12-05, 00:24:00,VALID,918.567,VALID,0,VALID,100,VALID,0,VALID,19.6791,VALID,357,VALID,0.118118,
2004-12-05, 00:25:00,VALID,918.57,VALID,0,VALID,100,VALID,0,VALID,19.6694,VALID,357,VALID,0.0255859,
2004-12-05, 00:26:00,VALID,918.548,VALID,0,VALID,100,VALID,0,VALID,19.6304,VALID,357,VALID,0,
2004-12-05, 00:27:00,VALID,918.541,VALID,0,VALID,100,VALID,0,VALID,19.6145,VALID,357,VALID,0,
2004-12-05, 00:28:00,VALID,918.534,VALID,0,VALID,100,VALID,0,VALID,19.5986,VALID,357,VALID,0,
2004-12-05, 00:29:00,VALID,918.524,VALID,0,VALID,100,VALID,0.0169808,VALID,19.5984,VALID,357,VALID,0,
2004-12-05, 00:30:00,VALID,918.529,VALID,0,VALID,100,VALID,0,VALID,19.6019,VALID,357,VALID,0,
2004-12-05, 00:31:00,VALID,918.516,VALID,0,VALID,100,VALID,-0.0169808,VALID,19.6014,VALID,357,VALID,0,
2004-12-05, 00:32:00,VALID,918.501,VALID,0,VALID,100,VALID,0.0339617,VALID,19.6016,VALID,357,VALID,0,
2004-12-05, 00:33:00,VALID,918.476,VALID,0,VALID,100,VALID,0.0679233,VALID,19.611,VALID,357,VALID,0,
2004-12-05, 00:34:00,VALID,918.447,VALID,0,VALID,100,VALID,0.0849042,VALID,19.579,VALID,357,VALID,0,
2004-12-05, 00:35:00,VALID,918.43,VALID,0,VALID,100,VALID,0.0339617,VALID,19.5335,VALID,357,VALID,0,
2004-12-05, 00:36:00,VALID,918.398,VALID,0,VALID,100,VALID,0.0169808,VALID,19.5047,VALID,357,VALID,0,
2004-12-05, 00:37:00,VALID,918.391,VALID,0,VALID,100,VALID,0.0509425,VALID,19.4853,VALID,358,VALID,0.130609,
2004-12-05, 00:38:00,VALID,918.363,VALID,0,VALID,100,VALID,0.0509425,VALID,19.4593,VALID,360,VALID,0.00703125,
2004-12-05, 00:39:00,VALID,918.344,VALID,0,VALID,100,VALID,0.0169808,VALID,19.4339,VALID,360,VALID,0.18099,
2004-12-05, 00:40:00,VALID,918.343,VALID,0,VALID,100,VALID,0,VALID,19.4212,VALID,360,VALID,0.000363372,
2004-12-05, 00:41:00,VALID,918.334,VALID,0,VALID,100,VALID,0,VALID,19.4111,VALID,2,VALID,0.336914,
2004-12-05, 00:42:00,VALID,918.347,VALID,0,VALID,100,VALID,0,VALID,19.4019,VALID,10,VALID,0.150856,
2004-12-05, 00:43:00,VALID,918.35,VALID,0,VALID,100,VALID,0.0339617,VALID,19.3626,VALID,8,VALID,0.333394,
2004-12-05, 00:44:00,VALID,918.355,VALID,0,VALID,100,VALID,0.0339617,VALID,19.3852,VALID,6,VALID,0.038872,
2004-12-05, 00:45:00,VALID,918.344,VALID,0,VALID,100,VALID,0.0169808,VALID,19.3825,VALID,6,VALID,0.00106534,
2004-12-05, 00:46:00,VALID,918.329,VALID,0,VALID,100,VALID,0.0339617,VALID,19.376,VALID,6,VALID,0.0747768,
2004-12-05, 00:47:00,VALID,918.313,VALID,0,VALID,100,VALID,0.0339617,VALID,19.3922,VALID,6,VALID,0.205333,
2004-12-05, 00:48:00,VALID,918.272,VALID,0,VALID,100,VALID,0,VALID,19.4247,VALID,6,VALID,0.224019,
2004-12-05, 00:49:00,VALID,918.253,VALID,0,VALID,100,VALID,0.0509425,VALID,19.4409,VALID,6,VALID,0.0750363,
2004-12-05, 00:50:00,VALID,918.236,VALID,0,VALID,100,VALID,0.0169808,VALID,19.4242,VALID,6,VALID,0,
2004-12-05, 00:51:00,VALID,918.221,VALID,0,VALID,100,VALID,0.0169808,VALID,19.4049,VALID,6,VALID,0,
2004-12-05, 00:52:00,VALID,918.211,VALID,0,VALID,100,VALID,0.0509425,VALID,19.3698,VALID,6,VALID,0,
2004-12-05, 00:53:00,VALID,918.2,VALID,0,VALID,100,VALID,0,VALID,19.3241,VALID,6,VALID,0,
2004-12-05, 00:54:00,VALID,918.214,VALID,0,VALID,100,VALID,0.0169808,VALID,19.2953,VALID,6,VALID,0,
2004-12-05, 00:55:00,VALID,918.21,VALID,0,VALID,100,VALID,0,VALID,19.2955,VALID,6,VALID,0,
2004-12-05, 00:56:00,VALID,918.209,VALID,0,VALID,100,VALID,0.0169808,VALID,19.3082,VALID,6,VALID,0,
2004-12-05, 00:57:00,VALID,918.217,VALID,0,VALID,100,VALID,0,VALID,19.2727,VALID,6,VALID,0,
2004-12-05, 00:58:00,VALID,918.209,VALID,0,VALID,100,VALID,0,VALID,19.2603,VALID,6,VALID,0,
2004-12-05, 00:59:00,VALID,918.192,VALID,0,VALID,100,VALID,0.0169808,VALID,19.2344,VALID,6,VALID,0.0285247,
2004-12-05, 01:00:00,VALID,918.182,VALID,0,VALID,100,VALID,0.0169808,VALID,19.2213,VALID,6,VALID,0.267805,
2004-12-05, 01:01:00,VALID,918.161,VALID,0,VALID,100,VALID,0.0339617,VALID,19.2369,VALID,6,VALID,0.352515,
2004-12-05, 01:02:00,VALID,918.146,VALID,0,VALID,100,VALID,-0.0509425,VALID,19.2801,VALID,6,VALID,0.234557,
2004-12-05, 01:03:00,VALID,918.135,VALID,0,VALID,100,VALID,-0.0849042,VALID,19.2935,VALID,6,VALID,0,
2004-12-05, 01:04:00,VALID,918.13,VALID,0,VALID,100,VALID,-0.101885,VALID,19.3074,VALID,6,VALID,0.0658482,
2004-12-05, 01:05:00,VALID,918.114,VALID,0,VALID,100,VALID,-0.101885,VALID,19.3072,VALID,358,VALID,0.403088,
2004-12-05, 01:06:00,VALID,918.113,VALID,0,VALID,100,VALID,-0.101885,VALID,19.3005,VALID,351,VALID,0.40516,
2004-12-05, 01:07:00,VALID,918.092,VALID,0,VALID,100,VALID,-0.118866,VALID,19.294,VALID,351,VALID,0.0229048,
2004-12-05, 01:08:00,VALID,918.099,VALID,0,VALID,100,VALID,-0.101885,VALID,19.2784,VALID,351,VALID,0.333757,
2004-12-05, 01:09:00,VALID,918.106,VALID,0,VALID,100,VALID,-0.101885,VALID,19.2548,VALID,351,VALID,0.310826,
2004-12-05, 01:10:00,VALID,918.105,VALID,0,VALID,100,VALID,-0.101885,VALID,19.2649,VALID,319,VALID,0.3621,
2004-12-05, 01:11:00,VALID,918.089,VALID,0,VALID,100,VALID,-0.0849042,VALID,19.2903,VALID,298,VALID,0.00990854,
2004-12-05, 01:12:01,VALID,918.078,VALID,0,VALID,100,VALID,-0.0679233,VALID,19.2905,VALID,298,VALID,0,
2004-12-05, 01:13:01,VALID,918.057,VALID,0,VALID,100,VALID,-0.0679233,VALID,19.2744,VALID,298,VALID,0,
2004-12-05, 01:14:00,VALID,918.054,VALID,0,VALID,100,VALID,-0.101885,VALID,19.2645,VALID,298,VALID,0,
2004-12-05, 01:15:00,VALID,918.034,VALID,0,VALID,100,VALID,-0.0849042,VALID,19.2359,VALID,298,VALID,0,
2004-12-05, 01:16:00,VALID,918.005,VALID,0,VALID,100,VALID,-0.101885,VALID,19.2331,VALID,298,VALID,0.154251,
2004-12-05, 01:17:00,VALID,917.967,VALID,0,VALID,100,VALID,-0.0679233,VALID,19.2133,VALID,298,VALID,0.110647,
2004-12-05, 01:18:01,VALID,917.932,VALID,0,VALID,100,VALID,-0.0169808,VALID,19.1348,VALID,298,VALID,0.0388808,
2004-12-05, 01:19:00,VALID,917.889,VALID,0,VALID,100,VALID,0,VALID,19.0663,VALID,298,VALID,0,
2004-12-05, 01:20:00,VALID,917.87,VALID,0,VALID,100,VALID,-0.0339617,VALID,19.0409,VALID,298,VALID,0.0392578,
2004-12-05, 01:21:00,VALID,917.839,VALID,0,VALID,100,VALID,-0.0679233,VALID,19.0252,VALID,298,VALID,0.0125762,
2004-12-05, 01:22:00,VALID,917.83,VALID,0,VALID,100,VALID,0,VALID,19.0054,VALID,298,VALID,0.0187872,
2004-12-05, 01:23:00,VALID,917.808,VALID,0,VALID,100,VALID,-0.0339617,VALID,18.9823,VALID,298,VALID,0.218932,
2004-12-05, 01:24:00,VALID,917.79,VALID,0,VALID,100,VALID,-0.0339617,VALID,18.9666,VALID,298,VALID,0.116824,
2004-12-05, 01:25:01,VALID,917.784,VALID,0,VALID,100,VALID,-0.0339617,VALID,18.96,VALID,298,VALID,0.00763081,
2004-12-05, 01:26:00,VALID,917.767,VALID,0,VALID,100,VALID,0,VALID,18.9669,VALID,298,VALID,0.0109012,
2004-12-05, 01:27:01,VALID,917.735,VALID,0,VALID,100,VALID,-0.0339617,VALID,18.9445,VALID,298,VALID,0.186328,
2004-12-05, 01:28:00,VALID,917.734,VALID,0.2,VALID,100,VALID,-0.0339617,VALID,18.87,VALID,337,VALID,0.393945,
2004-12-05, 01:29:00,VALID,917.724,VALID,0,VALID,100,VALID,-0.0169808,VALID,18.8372,VALID,344,VALID,0.602095,
2004-12-05, 01:30:00,VALID,917.706,VALID,0,VALID,100,VALID,-0.0169808,VALID,18.8211,VALID,352,VALID,0.623512,
2004-12-05, 01:31:00,VALID,917.703,VALID,0,VALID,100,VALID,0,VALID,18.8799,VALID,25,VALID,0.759527,
2004-12-05, 01:32:01,VALID,917.688,VALID,0,VALID,100,VALID,-0.0169808,VALID,18.8832,VALID,32,VALID,0.799665,
2004-12-05, 01:33:00,VALID,917.698,VALID,0,VALID,100,VALID,0,VALID,18.8921,VALID,28,VALID,0.764717,
2004-12-05, 01:34:00,VALID,917.693,VALID,0,VALID,100,VALID,0,VALID,18.8829,VALID,25,VALID,0.888393,
2004-12-05, 01:35:00,VALID,917.698,VALID,0,VALID,100,VALID,0,VALID,18.8663,VALID,25,VALID,0.727307,
2004-12-05, 01:36:00,VALID,917.687,VALID,0,VALID,100,VALID,-0.0169808,VALID,18.8564,VALID,25,VALID,0.683222,
2004-12-05, 01:37:01,VALID,917.675,VALID,0,VALID,100,VALID,-0.0169808,VALID,18.837,VALID,25,VALID,0.662729,
2004-12-05, 01:38:01,VALID,917.663,VALID,0,VALID,100,VALID,0,VALID,18.8377,VALID,25,VALID,0.605283,
2004-12-05, 01:39:01,VALID,917.68,VALID,0,VALID,100,VALID,0,VALID,18.8825,VALID,23,VALID,0.477983,
2004-12-05, 01:40:00,VALID,917.658,VALID,0,VALID,100,VALID,0,VALID,18.9475,VALID,336,VALID,0.571265,
2004-12-05, 01:41:00,VALID,917.654,VALID,0,VALID,100,VALID,-0.0169808,VALID,18.9733,VALID,338,VALID,0.447917,
2004-12-05, 01:42:00,VALID,917.646,VALID,0,VALID,100,VALID,0,VALID,19.0026,VALID,338,VALID,0.186435,
2004-12-05, 01:43:00,VALID,917.608,VALID,0,VALID,100,VALID,-0.0339617,VALID,18.9957,VALID,338,VALID,0,
2004-12-05, 01:44:00,VALID,917.613,VALID,0,VALID,100,VALID,-0.0679233,VALID,19.0123,VALID,338,VALID,0.0546875,
2004-12-05, 01:45:00,VALID,917.602,VALID,0,VALID,100,VALID,-0.0509425,VALID,19.0091,VALID,338,VALID,0.0574777,
2004-12-05, 01:46:01,VALID,917.603,VALID,0,VALID,100,VALID,-0.0679233,VALID,19.0158,VALID,323,VALID,0.382102,
2004-12-05, 01:47:00,VALID,917.6,VALID,0,VALID,100,VALID,-0.0509425,VALID,19.0513,VALID,308,VALID,0.425967,
2004-12-05, 01:48:00,VALID,917.589,VALID,0,VALID,100,VALID,-0.0509425,VALID,19.0839,VALID,289,VALID,0.569568,
2004-12-05, 01:49:01,VALID,917.592,VALID,0,VALID,100,VALID,-0.0339617,VALID,19.1191,VALID,257,VALID,0.441584,
2004-12-05, 01:50:00,VALID,917.579,VALID,0,VALID,100,VALID,-0.0509425,VALID,19.1251,VALID,257,VALID,0.0353516,
2004-12-05, 01:51:01,VALID,917.578,VALID,0,VALID,100,VALID,-0.0679233,VALID,19.1032,VALID,257,VALID,0.000363372,
2004-12-05, 01:52:01,VALID,917.567,VALID,0,VALID,100,VALID,-0.0679233,VALID,19.103,VALID,257,VALID,0.410742,
2004-12-05, 01:53:00,VALID,917.564,VALID,0,VALID,100,VALID,-0.0509425,VALID,19.1154,VALID,257,VALID,0.401042,
2004-12-05, 01:54:00,VALID,917.555,VALID,0,VALID,100,VALID,-0.0679233,VALID,19.1385,VALID,257,VALID,0.241235,
2004-12-05, 01:55:00,VALID,917.528,VALID,0,VALID,100,VALID,-0.0509425,VALID,19.1184,VALID,257,VALID,0.257068,
2004-12-05, 01:56:01,VALID,917.528,VALID,0,VALID,100,VALID,-0.101885,VALID,19.1132,VALID,257,VALID,0.0150923,
2004-12-05, 01:57:00,VALID,917.519,VALID,0,VALID,100,VALID,-0.0679233,VALID,19.0995,VALID,257,VALID,0,
2004-12-05, 01:58:01,VALID,917.524,VALID,0,VALID,100,VALID,-0.0169808,VALID,19.0675,VALID,257,VALID,0,
2004-12-05, 01:59:01,VALID,917.505,VALID,0,VALID,100,VALID,-0.0339617,VALID,19.0575,VALID,257,VALID,0,
2004-12-05, 02:00:00,VALID,917.509,VALID,0,VALID,100,VALID,-0.0679233,VALID,19.0446,VALID,257,VALID,0,
2004-12-05, 02:01:00,VALID,917.493,VALID,0,VALID,100,VALID,-0.0679233,VALID,19.0414,VALID,257,VALID,0,
2004-12-05, 02:02:00,VALID,917.473,VALID,0,VALID,100,VALID,-0.0339617,VALID,19.0543,VALID,257,VALID,0,
2004-12-05, 02:03:01,VALID,917.473,VALID,0,VALID,100,VALID,-0.0169808,VALID,19.0481,VALID,257,VALID,0,
2004-12-05, 02:04:00,VALID,917.469,VALID,0,VALID,100,VALID,-0.0339617,VALID,19.0412,VALID,257,VALID,0,
2004-12-05, 02:05:01,VALID,917.454,VALID,0,VALID,100,VALID,-0.0509425,VALID,19.0573,VALID,257,VALID,0,
2004-12-05, 02:06:00,VALID,917.454,VALID,0,VALID,100,VALID,-0.0169808,VALID,19.0638,VALID,257,VALID,0,
2004-12-05, 02:07:01,VALID,917.459,VALID,0,VALID,100,VALID,-0.0679233,VALID,19.0898,VALID,221,VALID,0,
2004-12-05, 02:08:00,VALID,917.456,VALID,0,VALID,100,VALID,-0.0339617,VALID,19.1316,VALID,193,VALID,0.516533,
2004-12-05, 02:09:00,VALID,917.462,VALID,0,VALID,100,VALID,-0.0509425,VALID,19.1572,VALID,202,VALID,0.517671,
2004-12-05, 02:10:01,VALID,917.484,VALID,0,VALID,100,VALID,-0.0509425,VALID,19.2123,VALID,211,VALID,0.55221,
2004-12-05, 02:11:00,VALID,917.493,VALID,0,VALID,100,VALID,0,VALID,19.2515,VALID,211,VALID,0.231357,
2004-12-05, 02:12:00,VALID,917.508,VALID,0,VALID,100,VALID,-0.0169808,VALID,19.2801,VALID,195,VALID,0.677827,
2004-12-05, 02:13:00,VALID,917.524,VALID,0,VALID,100,VALID,-0.0339617,VALID,19.2963,VALID,190,VALID,0.299293,
2004-12-05, 02:14:00,VALID,917.523,VALID,0,VALID,100,VALID,-0.0339617,VALID,19.3156,VALID,190,VALID,0.188743,
2004-12-05, 02:15:01,VALID,917.524,VALID,0,VALID,100,VALID,-0.0339617,VALID,19.3291,VALID,190,VALID,0.436384,
2004-12-05, 02:16:00,VALID,917.538,VALID,0,VALID,100,VALID,-0.0169808,VALID,19.3157,VALID,190,VALID,0.344477,
2004-12-05, 02:17:01,VALID,917.546,VALID,0,VALID,100,VALID,-0.0339617,VALID,19.3253,VALID,190,VALID,0.314986,
2004-12-05, 02:18:00,VALID,917.554,VALID,0,VALID,100,VALID,-0.0169808,VALID,19.338,VALID,190,VALID,0.222565,
2004-12-05, 02:19:00,VALID,917.571,VALID,0,VALID,100,VALID,-0.0169808,VALID,19.3475,VALID,190,VALID,0.000372024,
2004-12-05, 02:20:00,VALID,917.585,VALID,0,VALID,100,VALID,-0.0339617,VALID,19.3571,VALID,190,VALID,0.000744048,
2004-12-05, 02:21:01,VALID,917.593,VALID,0,VALID,100,VALID,-0.0169808,VALID,19.3807,VALID,190,VALID,0,
2004-12-05, 02:22:00,VALID,917.594,VALID,0,VALID,100,VALID,-0.0509425,VALID,19.3867,VALID,190,VALID,0.0363372,
2004-12-05, 02:23:00,VALID,917.583,VALID,0,VALID,100,VALID,-0.0509425,VALID,19.3899,VALID,190,VALID,0.294389,
2004-12-05, 02:24:01,VALID,917.573,VALID,0,VALID,100,VALID,0,VALID,19.3902,VALID,190,VALID,0.00745739,
2004-12-05, 02:25:01,VALID,917.562,VALID,0,VALID,100,VALID,-0.0339617,VALID,19.3899,VALID,190,VALID,0,
2004-12-05, 02:26:01,VALID,917.527,VALID,0,VALID,100,VALID,-0.0169808,VALID,19.3927,VALID,190,VALID,0,
2004-12-05, 02:27:00,VALID,917.5,VALID,0,VALID,100,VALID,0,VALID,19.3894,VALID,190,VALID,0,
2004-12-05, 02:28:01,VALID,917.489,VALID,0,VALID,100,VALID,0,VALID,19.3835,VALID,190,VALID,0,
2004-12-05, 02:29:00,VALID,917.461,VALID,0,VALID,100,VALID,-0.0169808,VALID,19.3765,VALID,190,VALID,0.136083,
2004-12-05, 02:30:00,VALID,917.444,VALID,0,VALID,100,VALID,-0.0169808,VALID,19.3768,VALID,190,VALID,0.139695,
2004-12-05, 02:31:00,VALID,917.446,VALID,0,VALID,100,VALID,0,VALID,19.3668,VALID,190,VALID,0.00726744,
2004-12-05, 02:32:00,VALID,917.454,VALID,0,VALID,100,VALID,-0.0339617,VALID,19.3507,VALID,190,VALID,0,
2004-12-05, 02:33:01,VALID,917.45,VALID,0,VALID,100,VALID,-0.0509425,VALID,19.3606,VALID,190,VALID,0,
2004-12-05, 02:34:01,VALID,917.436,VALID,0,VALID,100,VALID,-0.0339617,VALID,19.3507,VALID,190,VALID,0,
2004-12-05, 02:35:00,VALID,917.435,VALID,0,VALID,100,VALID,-0.0679233,VALID,19.3482,VALID,183,VALID,0.158984,
2004-12-05, 02:36:01,VALID,917.417,VALID,0,VALID,100,VALID,-0.0169808,VALID,19.3216,VALID,29,VALID,0.700218,
2004-12-05, 02:37:00,VALID,917.41,VALID,0,VALID,100,VALID,-0.0509425,VALID,19.3194,VALID,35,VALID,0.9375,
2004-12-05, 02:38:01,VALID,917.405,VALID,0,VALID,100,VALID,-0.0169808,VALID,19.3025,VALID,38,VALID,0.974201,
2004-12-05, 02:39:00,VALID,917.399,VALID,0,VALID,100,VALID,-0.0339617,VALID,19.2727,VALID,46,VALID,1.10312,
2004-12-05, 02:40:01,VALID,917.397,VALID,0,VALID,100,VALID,0,VALID,19.2955,VALID,51,VALID,0.960156,
2004-12-05, 02:41:00,VALID,917.417,VALID,0,VALID,100,VALID,-0.0339617,VALID,19.3027,VALID,49,VALID,0.642671,
2004-12-05, 02:42:00,VALID,917.43,VALID,0,VALID,100,VALID,-0.0339617,VALID,19.2893,VALID,31,VALID,0.290334,
2004-12-05, 02:43:01,VALID,917.448,VALID,0,VALID,100,VALID,-0.0339617,VALID,19.2796,VALID,31,VALID,0,
2004-12-05, 02:44:01,VALID,917.457,VALID,0,VALID,100,VALID,-0.0339617,VALID,19.2633,VALID,31,VALID,0,
2004-12-05, 02:45:00,VALID,917.454,VALID,0,VALID,100,VALID,-0.0169808,VALID,19.2662,VALID,31,VALID,0,
2004-12-05, 02:46:00,VALID,917.461,VALID,0,VALID,100,VALID,-0.0339617,VALID,19.2665,VALID,31,VALID,0,
2004-12-05, 02:47:01,VALID,917.445,VALID,0,VALID,100,VALID,-0.0169808,VALID,19.2764,VALID,31,VALID,0.0713542,
2004-12-05, 02:48:01,VALID,917.448,VALID,0,VALID,100,VALID,-0.0339617,VALID,19.2767,VALID,32,VALID,0.317773,
2004-12-05, 02:49:00,VALID,917.427,VALID,0,VALID,100,VALID,0,VALID,19.2796,VALID,44,VALID,0.357469,
2004-12-05, 02:50:01,VALID,917.434,VALID,0,VALID,100,VALID,0,VALID,19.296,VALID,62,VALID,0.334872,
2004-12-05, 02:51:01,VALID,917.424,VALID,0,VALID,100,VALID,-0.0509425,VALID,19.3057,VALID,62,VALID,0.237351,
2004-12-05, 02:52:01,VALID,917.417,VALID,0,VALID,100,VALID,-0.0509425,VALID,19.3157,VALID,62,VALID,0.365916,
2004-12-05, 02:53:00,VALID,917.426,VALID,0,VALID,100,VALID,-0.0169808,VALID,19.3316,VALID,62,VALID,0.145531,
2004-12-05, 02:54:00,VALID,917.416,VALID,0,VALID,100,VALID,-0.0339617,VALID,19.3219,VALID,62,VALID,0.129261,
2004-12-05, 02:55:01,VALID,917.42,VALID,0,VALID,100,VALID,-0.0339617,VALID,19.3318,VALID,62,VALID,0.29668,
2004-12-05, 02:56:01,VALID,917.409,VALID,0,VALID,100,VALID,-0.0169808,VALID,19.3281,VALID,62,VALID,0.119731,
2004-12-05, 02:57:00,VALID,917.388,VALID,0,VALID,100,VALID,-0.0169808,VALID,19.335,VALID,62,VALID,0.218555,
2004-12-05, 02:58:00,VALID,917.36,VALID,0,VALID,100,VALID,-0.0339617,VALID,19.3385,VALID,62,VALID,0.0285866,
2004-12-05, 02:59:01,VALID,917.345,VALID,0,VALID,100,VALID,-0.0169808,VALID,19.3348,VALID,62,VALID,0,
2004-12-05, 03:00:00,VALID,917.311,VALID,0,VALID,100,VALID,-0.0339617,VALID,19.3318,VALID,62,VALID,0,
2004-12-05, 03:01:01,VALID,917.282,VALID,0,VALID,100,VALID,-0.0169808,VALID,19.3246,VALID,62,VALID,0,
2004-12-05, 03:02:01,VALID,917.262,VALID,0,VALID,100,VALID,-0.0339617,VALID,19.335,VALID,62,VALID,0,
2004-12-05, 03:03:01,VALID,917.244,VALID,0,VALID,100,VALID,-0.0169808,VALID,19.3348,VALID,62,VALID,0,
2004-12-05, 03:04:01,VALID,917.218,VALID,0,VALID,100,VALID,-0.0339617,VALID,19.3216,VALID,62,VALID,0,
2004-12-05, 03:05:01,VALID,917.208,VALID,0,VALID,100,VALID,0,VALID,19.3253,VALID,62,VALID,0,
2004-12-05, 03:06:01,VALID,917.202,VALID,0,VALID,100,VALID,-0.0339617,VALID,19.3316,VALID,62,VALID,0.204901,
2004-12-05, 03:07:01,VALID,917.196,VALID,0,VALID,100,VALID,-0.0509425,VALID,19.3219,VALID,62,VALID,0.236133,
2004-12-05, 03:08:01,VALID,917.175,VALID,0,VALID,100,VALID,0,VALID,19.3157,VALID,62,VALID,0.0718369,
2004-12-05, 03:09:01,VALID,917.163,VALID,0,VALID,100,VALID,-0.0169808,VALID,19.302,VALID,62,VALID,0,
2004-12-05, 03:10:01,VALID,917.152,VALID,0,VALID,100,VALID,-0.0169808,VALID,19.3186,VALID,62,VALID,0,
2004-12-05, 03:11:00,VALID,917.156,VALID,0,VALID,100,VALID,-0.0339617,VALID,19.3159,VALID,62,VALID,0,
2004-12-05, 03:12:01,VALID,917.16,VALID,0,VALID,100,VALID,-0.0169808,VALID,19.3251,VALID,62,VALID,0,
2004-12-05, 03:13:01,VALID,917.147,VALID,0,VALID,100,VALID,0,VALID,19.3313,VALID,62,VALID,0,
2004-12-05, 03:14:01,VALID,917.134,VALID,0,VALID,100,VALID,-0.0339617,VALID,19.3445,VALID,62,VALID,0,
2004-12-05, 03:15:01,VALID,917.149,VALID,0,VALID,100,VALID,0,VALID,19.3445,VALID,62,VALID,0,
2004-12-05, 03:16:01,VALID,917.144,VALID,0,VALID,100,VALID,0.0169808,VALID,19.3544,VALID,62,VALID,0,
2004-12-05, 03:17:01,VALID,917.143,VALID,0,VALID,100,VALID,-0.0169808,VALID,19.3542,VALID,62,VALID,0,
2004-12-05, 03:18:01,VALID,917.123,VALID,0,VALID,100,VALID,-0.0169808,VALID,19.3507,VALID,62,VALID,0,
2004-12-05, 03:19:01,VALID,917.11,VALID,0,VALID,100,VALID,0.0169808,VALID,19.3472,VALID,62,VALID,0,
2004-12-05, 03:20:01,VALID,917.115,VALID,0,VALID,100,VALID,-0.0169808,VALID,19.3537,VALID,62,VALID,0,
2004-12-05, 03:21:01,VALID,917.094,VALID,0,VALID,100,VALID,0,VALID,19.3311,VALID,62,VALID,0,
2004-12-05, 03:22:01,VALID,917.074,VALID,0,VALID,100,VALID,0,VALID,19.3152,VALID,62,VALID,0,
2004-12-05, 03:23:01,VALID,917.066,VALID,0,VALID,100,VALID,0,VALID,19.2893,VALID,62,VALID,0,
2004-12-05, 03:24:01,VALID,917.057,VALID,0,VALID,100,VALID,-0.0169808,VALID,19.2697,VALID,62,VALID,0,
2004-12-05, 03:25:01,VALID,917.045,VALID,0,VALID,100,VALID,0,VALID,19.2563,VALID,62,VALID,0,
2004-12-05, 03:26:01,VALID,917.035,VALID,0,VALID,100,VALID,0,VALID,19.2536,VALID,62,VALID,0,
2004-12-05, 03:27:01,VALID,917.041,VALID,0,VALID,100,VALID,-0.0169808,VALID,19.2503,VALID,62,VALID,0,
2004-12-05, 03:28:01,VALID,917.045,VALID,0,VALID,100,VALID,0,VALID,19.2277,VALID,62,VALID,0,
2004-12-05, 03:29:01,VALID,917.033,VALID,0,VALID,100,VALID,0,VALID,19.221,VALID,62,VALID,0,
2004-12-05, 03:30:01,VALID,917.027,VALID,0,VALID,100,VALID,0,VALID,19.2247,VALID,62,VALID,0,
2004-12-05, 03:31:01,VALID,917.014,VALID,0,VALID,100,VALID,0,VALID,19.2151,VALID,62,VALID,0,
2004-12-05, 03:32:01,VALID,916.997,VALID,0,VALID,100,VALID,0,VALID,19.1989,VALID,62,VALID,0,
2004-12-05, 03:33:01,VALID,916.99,VALID,0,VALID,100,VALID,-0.0339617,VALID,19.2121,VALID,62,VALID,0,
2004-12-05, 03:34:01,VALID,916.955,VALID,0,VALID,100,VALID,0,VALID,19.2084,VALID,62,VALID,0,
2004-12-05, 03:35:01,VALID,916.954,VALID,0,VALID,100,VALID,0,VALID,19.1987,VALID,62,VALID,0.0816761,
2004-12-05, 03:36:01,VALID,916.928,VALID,0,VALID,100,VALID,0,VALID,19.1924,VALID,62,VALID,0.39566,
2004-12-05, 03:37:01,VALID,916.918,VALID,0,VALID,100,VALID,-0.0169808,VALID,19.1765,VALID,62,VALID,0.411701,
2004-12-05, 03:38:00,VALID,916.899,VALID,0,VALID,100,VALID,0,VALID,19.1696,VALID,62,VALID,0.312137,
2004-12-05, 03:39:00,VALID,916.87,VALID,0,VALID,100,VALID,-0.0339617,VALID,19.1768,VALID,62,VALID,0.427083,
2004-12-05, 03:40:00,VALID,916.852,VALID,0,VALID,100,VALID,-0.0509425,VALID,19.1701,VALID,62,VALID,0.473189,
2004-12-05, 03:41:00,VALID,916.827,VALID,0,VALID,100,VALID,0,VALID,19.1602,VALID,62,VALID,0.43109,
2004-12-05, 03:42:00,VALID,916.829,VALID,0,VALID,100,VALID,-0.0509425,VALID,19.1671,VALID,62,VALID,0.192587,
2004-12-05, 03:43:00,VALID,916.831,VALID,0,VALID,100,VALID,-0.0509425,VALID,19.1581,VALID,62,VALID,0.0929878,
2004-12-05, 03:44:00,VALID,916.839,VALID,0,VALID,100,VALID,-0.0339617,VALID,19.151,VALID,62,VALID,0.012718,
2004-12-05, 03:45:00,VALID,916.83,VALID,0,VALID,100,VALID,-0.0339617,VALID,19.1574,VALID,62,VALID,0,
2004-12-05, 03:46:00,VALID,916.829,VALID,0,VALID,100,VALID,-0.0339617,VALID,19.1539,VALID,62,VALID,0,